Weather in Bechichi

Montenegro     42°16′59″N   18°52′38″E
temp.,
°C
wind,
m/s
gust,
m/s
humid.,
%
clouds,
%
prec.,
mm/h
press.,
hPa
HPBL,
m
13 may, thu
thu1323:00+13sse01854 0.2 101132
02:00+11ne22895 0.3 101136
05:00+12ne228299 0.0 100950
08:00+14sse1277100 0.2 1008191
11:00+14sw4881100 1.3 10091000
14:00+14ssw368290 3.3 1009843
17:00+15ssw347452 1.8 1009772
20:00+12s128372 2.6 101080
14 may, fri
fri1423:00+11ene239160 1.9 101177
02:00+11ene3395100 4.8 101197
05:00+10ene339513 0.9 101260
08:00+14se13747 1.8 1012511
11:00+14s116987 0.5 1014454
14:00+17s36565 0.9 10141398
17:00+17s3456100 0.0 1013928
20:00+13ese238021 0.1 101390
15 may, sat
sat1523:00+12e2389100 0.4 101370
02:00+12ene3489100 1.6 1012113
05:00+12ssw1296100 5.9 1011140
08:00+12ne2397100 10.4 1012169
11:00+12nne3391100 1.8 1012161
14:00+12ne2393100 4.4 1012264
17:00+12ene1287100 0.5 1012100
20:00+12ene118467 0.6 101254
16 may, sun
sun1623:00+10nne228816 0.0 101342
02:00+10nnw1185100 0.0 101332
05:00+10ne1185100 0.0 101233
08:00+13ene1180100 0.0 1013182
11:00+16ssw2269100 0.0 1013747
14:00+17sw2372100 0.1 1013738
17:00+16sw227710 0.1 1013526
20:00+13e11888 0.1 101333
17 may, mon
mon1723:00+13nne018989 0.0 101431
02:00+13ene228859 0.0 101449
05:00+12ne229299 0.0 101342
08:00+15ene2283100 0.0 1013201
11:00+20s23645 0.0 1013703
14:00+21s34585 0.0 1013940
17:00+20s346143 0.0 1012549
20:00+17e227453 0.0 101227